Probability
12 13 16 17 18 22 25 24 21 18 17 12 8 6 5 5 7 9 12 13 11 11 11 9 9 7 3 1 0 1 0 0 0 0 0 0 0 0 0 0 0 0 0
11 15 18 18 18 21 24 24 24 24 21 17 14 13 11 10 11 12 13 14 13 11 11 12 13 12 7 2 1 2 1 1 0 0 0 0 0 0 0 0 0 0 0
9 13 17 17 16 18 21 25 27 28 26 23 22 21 19 17 17 17 16 16 15 13 13 15 17 15 9 5 4 4 3 2 1 0 0 0 0 0 0 0 0 0 0
6 10 14 16 16 17 19 22 26 29 28 26 25 24 23 21 19 17 15 15 15 15 16 18 17 13 9 7 7 6 3 2 1 0 0 0 0 0 0 0 0 0 0
6 8 12 16 18 18 17 18 23 27 27 23 20 20 20 18 16 14 11 11 13 16 17 19 19 15 11 10 10 8 3 2 2 2 1 0 0 0 0 0 0 0 0
6 8 12 15 16 15 13 13 17 21 22 19 16 14 14 14 14 13 11 11 12 13 15 18 21 20 15 12 11 9 5 3 5 5 3 1 1 0 0 0 0 0 0
8 10 13 15 14 12 10 9 11 14 16 16 15 13 12 11 12 13 14 15 12 10 11 14 18 20 18 14 10 8 7 6 7 7 5 3 2 1 0 0 0 0 0
10 11 12 14 12 10 9 8 8 9 10 12 13 13 11 10 10 10 12 13 11 9 10 12 15 17 17 16 12 8 7 7 7 7 6 3 2 1 1 0 0 0 0
7 8 9 9 8 8 8 7 6 7 9 10 11 11 10 9 7 6 5 5 7 9 11 11 11 12 14 17 15 9 6 5 6 6 5 4 2 2 1 0 0 0 1
4 4 6 5 5 5 5 4 3 5 9 10 9 9 10 9 7 5 2 2 4 8 9 9 9 10 12 17 16 9 4 3 3 4 4 4 2 1 1 0 0 1 2
1 1 3 3 2 2 1 1 1 4 6 7 6 7 9 9 7 5 3 2 4 6 7 8 9 10 12 15 14 7 3 2 1 1 2 3 2 2 2 1 0 1 2
0 0 1 1 1 0 0 0 0 1 2 3 3 4 6 6 5 4 3 3 3 4 5 6 7 8 10 11 8 4 1 1 0 0 0 1 2 3 3 2 1 1 2
0 0 0 0 0 0 0 0 0 0 0 1 1 2 3 3 3 4 3 2 3 3 3 3 3 3 5 6 4 2 1 0 0 0 0 0 1 2 3 3 2 1 2
0 0 0 0 0 0 0 0 0 0 0 0 0 1 2 2 2 3 3 3 3 3 3 2 1 1 2 3 3 2 2 1 0 0 0 0 0 1 2 2 1 0 1
0 0 0 0 0 0 0 0 0 0 0 0 0 1 1 1 1 1 2 3 3 3 2 1 1 0 1 2 2 2 2 1 0 0 0 0 0 0 1 1 0 0 0
0 0 0 0 0 0 0 0 0 0 0 0 0 0 0 0 0 0 1 2 2 1 1 0 0 0 0 0 1 1 1 0 0 0 0 0 0 0 0 0 0 0 0
0 0 0 0 0 0 0 0 0 0 0 0 0 0 0 0 0 0 0 1 1 0 0 0 0 0 0 0 0 1 0 0 0 0 0 0 0 0 0 0 0 0 0
0 0 0 0 0 0 0 0 0 0 0 0 0 0 0 0 0 0 0 0 0 0 0 0 0 0 0 0 0 1 0 0 0 0 0 0 0 0 0 0 0 0 0
0 0 0 0 0 0 0 0 0 0 0 0 0 0 0 0 0 0 0 0 0 0 0 0 0 0 0 0 0 0 0 0 0 0 0 0 0 0 0 0 0 0 0
0 0 0 0 0 0 0 0 0 0 0 0 0 0 0 0 0 0 0 0 0 0 0 0 0 0 0 0 0 0 0 1 1 1 0 0 0 0 0 0 0 0 0
0 0 0 0 0 0 0 0 0 0 0 0 0 0 0 0 0 0 0 0 0 0 0 0 0 0 0 0 0 0 0 1 2 1 1 0 0 0 0 0 0 0 0
0 0 0 0 0 0 0 0 0 0 0 0 0 0 0 0 0 0 0 0 0 0 0 0 0 0 0 0 0 0 0 1 2 2 1 0 0 1 1 0 0 0 0
0 0 0 0 0 0 0 0 0 0 0 0 0 0 0 0 0 0 0 0 0 0 0 0 0 0 0 0 0 0 0 0 1 2 1 0 0 1 1 0 0 0 0
0 0 0 0 0 0 0 0 0 0 0 0 0 0 0 0 0 0 0 0 0 0 0 0 0 0 0 0 0 0 0 0 1 1 1 0 0 1 1 0 0 0 0
0 0 0 0 0 0 0 0 0 0 0 0 0 0 0 0 0 0 0 0 0 0 0 0 0 0 0 0 0 0 0 0 0 0 0 0 0 0 0 0 0 0 0
0 0 0 0 0 0 0 0 0 0 0 0 0 0 0 0 0 0 0 0 0 0 0 0 0 0 0 0 0 0 0 0 0 0 0 0 0 0 0 0 0 0 0
Wind_Speed
3 3 3 3 4 3 4 4 5 4 5 6 6 6 7 7 7 6 3 6 7 8 8 9 10 11 11 12 12 13 13 13 13 12 12 12 11 11 10 10 10 10 10
2 3 3 3 3 3 4 4 5 4 4 4 5 6 6 6 6 6 6 4 7 7 7 8 8 9 11 11 12 12 12 13 13 13 13 12 12 11 11 10 10 11 10
2 3 3 3 3 4 4 4 5 4 5 5 5 5 5 5 6 6 6 5 5 7 7 6 6 7 9 9 10 11 11 12 12 12 12 12 12 12 12 11 11 11 11
2 3 3 3 3 4 4 4 4 4 4 4 4 4 4 4 6 6 6 5 5 4 6 7 6 7 8 9 10 10 11 11 12 12 12 12 12 12 12 12 12 11 11
2 2 2 2 4 3 3 5 3 3 4 4 4 4 4 4 4 5 5 5 4 5 4 5 7 6 6 6 7 9 10 11 12 12 12 12 12 12 12 12 12 12 11
1 2 2 2 3 3 3 3 4 3 4 3 5 5 4 4 3 4 5 4 4 5 5 4 4 4 5 4 4 6 8 9 10 10 11 12 12 11 11 11 11 11 11
1 2 2 2 2 2 3 4 4 4 4 2 4 4 4 4 3 3 3 3 4 4 3 3 2 2 3 5 3 3 4 6 8 9 10 11 10 10 10 11 10 10 10
1 1 2 2 2 2 3 3 3 3 3 2 3 4 3 3 3 3 3 3 3 3 3 3 3 2 3 2 3 2 1 2 4 6 7 7 7 8 8 9 10 10 10
2 2 2 2 3 3 3 3 4 4 3 3 3 4 3 3 1 2 3 2 2 2 1 2 2 2 2 2 2 3 1 1 2 4 5 5 6 7 8 10 10 10 11
2 2 2 2 3 3 2 3 3 4 4 4 3 4 5 4 3 2 3 2 2 2 1 2 2 2 3 2 2 3 2 1 1 2 3 4 5 6 8 9 10 11 12
2 2 2 2 2 2 2 3 3 4 3 4 4 3 4 4 6 4 4 3 2 2 2 2 2 2 2 1 1 2 2 1 1 1 1 3 4 6 7 8 8 9 10
1 2 2 2 2 2 2 3 3 3 3 4 4 4 3 3 3 4 4 4 3 2 2 2 2 2 1 1 0 3 2 1 0 1 1 1 2 5 6 7 7 8 8
1 2 3 2 2 2 2 2 2 3 3 3 4 3 3 3 3 4 4 3 3 2 2 2 2 1 1 1 1 1 2 1 0 0 0 0 1 2 4 4 5 5 6
2 2 2 2 2 2 2 2 3 2 2 3 3 4 4 3 3 4 4 3 3 3 3 3 1 1 1 1 2 2 1 2 1 1 0 1 1 2 3 3 4 4 4
1 2 2 2 3 3 3 3 2 2 2 3 3 3 3 3 3 4 4 4 4 4 3 2 2 1 1 1 1 1 0 3 1 1 0 1 1 2 3 3 4 4 4
2 2 3 3 3 3 3 3 3 3 3 3 3 3 4 3 3 3 4 4 5 5 4 1 1 0 0 1 1 1 1 3 2 1 2 2 2 3 4 5 5 5 4
2 2 2 2 3 3 3 3 4 3 3 3 3 3 3 4 4 3 3 3 4 4 4 3 2 0 1 2 1 1 1 2 3 4 3 4 4 4 5 5 5 5 4
1 2 2 2 3 3 3 3 3 3 3 4 4 4 4 3 4 4 3 3 3 3 3 3 2 2 2 2 2 1 1 0 2 6 5 4 5 5 5 5 5 5 5
1 2 2 2 3 3 3 3 3 4 4 4 4 4 4 4 4 3 4 3 3 2 2 3 3 2 2 2 2 2 2 1 2 5 6 6 5 5 4 4 4 4 4
1 1 2 2 2 3 4 4 3 3 4 4 4 4 4 4 5 4 3 3 3 3 3 3 3 2 2 2 3 2 3 3 2 3 4 4 6 6 5 4 4 4 4
1 2 2 2 3 3 4 6 4 4 4 4 3 3 3 4 5 5 4 3 3 3 3 3 3 3 3 3 3 3 2 3 3 2 3 4 5 4 6 6 6 5 4
2 2 2 3 3 4 5 6 7 4 4 4 4 4 2 1 1 2 3 4 5 4 3 3 3 3 3 3 3 3 3 3 3 3 2 2 3 3 3 4 6 7 6
1 2 2 3 3 4 3 5 7 5 4 4 4 4 4 3 3 2 2 5 4 4 5 5 4 4 4 4 3 4 3 2 1 3 3 2 3 3 3 4 9 8 7
1 2 2 2 2 3 2 4 7 5 3 3 4 4 4 4 5 5 4 2 1 1 3 4 4 4 3 3 3 3 3 3 2 3 3 2 3 2 2 4 9 8 7
1 1 2 2 2 1 2 4 8 4 2 3 4 4 5 4 5 7 4 2 1 1 1 2 1 2 2 2 3 3 4 3 3 3 3 2 2 2 3 4 7 10 8
1 2 2 2 3 2 2 3 8 4 3 2 2 1 3 4 6 7 4 3 2 1 1 2 3 4 5 5 6 5 3 3 2 2 3 3 2 3 3 3 4 6 7
Wind_Direction
246 251 255 258 264 263 245 247 255 256 255 249 254 253 259 263 264 262 236 179 210 227 231 229 227 224 225 227 227 226 226 227 225 223 221 222 223 223 222 219 217 214 213
270 270 259 258 264 268 275 269 261 251 252 257 260 264 269 272 271 268 264 208 200 215 225 227 222 225 227 225 226 227 226 225 224 223 222 222 222 222 223 222 219 216 214
278 273 272 264 274 272 263 260 261 257 252 248 253 258 258 268 270 266 266 262 227 202 208 218 215 218 224 225 226 228 228 225 225 223 221 221 220 220 222 221 221 220 215
283 275 278 286 288 275 268 263 256 260 264 269 271 270 265 258 261 263 261 254 257 247 201 199 214 223 227 229 232 231 230 228 227 227 224 225 224 220 218 218 219 216 215
322 292 291 301 278 273 274 275 271 268 268 270 270 265 266 261 263 259 261 262 258 260 250 189 198 211 221 229 232 235 232 228 226 226 224 224 223 218 217 218 215 214 214
352 315 302 331 304 290 284 282 278 263 263 266 274 272 268 264 259 261 263 257 249 247 244 238 205 192 192 209 229 239 237 228 224 225 222 222 221 219 217 215 213 211 210
31 337 333 340 318 316 305 290 280 268 261 266 273 272 261 252 247 248 255 259 252 250 241 233 231 232 192 183 200 229 241 234 225 223 223 222 221 215 213 212 212 212 210
24 359 350 331 340 317 308 305 288 279 272 268 276 276 261 240 226 234 239 230 251 246 233 222 222 223 243 205 143 168 238 246 233 224 216 211 213 214 213 214 216 215 214
51 26 11 3 344 320 333 321 307 287 276 266 255 265 266 255 243 220 239 236 229 230 235 227 218 234 242 236 191 141 117 299 245 237 224 213 214 214 220 222 220 219 216
43 33 10 10 340 330 334 313 336 310 289 276 259 250 265 279 261 246 218 216 226 235 251 257 243 220 235 220 160 91 92 348 279 254 231 215 215 215 223 224 222 223 219
62 44 23 1 330 326 344 331 324 312 307 301 286 274 262 257 250 255 251 236 234 229 233 250 258 250 241 252 235 85 87 85 342 313 266 223 218 215 220 223 222 219 214
72 52 23 2 333 345 341 326 317 312 315 309 299 286 277 269 260 252 254 245 244 243 247 266 260 266 262 255 92 63 75 70 4 344 321 270 227 210 211 210 212 210 209
48 37 12 2 349 343 326 321 311 320 312 308 298 297 294 285 283 273 264 257 254 257 246 239 234 261 267 267 156 89 123 114 75 345 297 260 227 195 189 188 193 191 188
34 27 357 3 357 341 327 323 297 310 317 310 311 314 296 288 281 276 274 265 256 245 235 229 200 237 299 301 30 268 150 96 67 348 277 219 212 189 172 173 173 170 168
42 24 3 9 7 355 343 318 325 320 318 305 307 305 301 305 289 281 272 262 260 259 256 220 205 181 263 331 356 285 29 81 72 45 119 147 148 136 136 136 125 123 124
25 7 11 15 10 357 347 331 326 346 327 325 326 332 315 304 298 282 273 266 263 265 264 267 262 269 337 288 287 294 90 131 114 92 98 113 118 118 118 119 114 111 115
23 4 5 11 7 358 355 341 338 337 335 337 328 322 314 316 305 295 281 270 259 249 249 262 286 213 218 242 228 239 191 207 131 115 105 110 114 116 120 122 121 121 125
22 13 1 9 6 6 359 345 339 342 340 341 336 329 320 314 307 298 293 283 274 265 251 248 253 237 225 227 207 203 188 158 120 119 121 117 118 122 122 123 122 123 126
40 25 12 11 5 1 355 348 344 342 346 343 335 329 326 323 312 308 293 282 270 256 253 246 245 242 226 215 194 187 162 166 152 138 143 139 125 120 121 129 132 135 136
23 20 13 9 1 3 359 351 350 349 346 344 337 331 330 327 322 315 297 285 276 257 238 236 235 224 204 197 207 188 177 180 166 148 131 132 136 142 140 143 146 147 151
8 12 4 4 6 9 12 356 344 345 343 336 334 336 346 347 350 330 320 311 287 266 245 231 225 215 197 195 203 199 186 170 158 168 160 164 167 172 167 173 176 172 177
10 0 357 352 0 24 28 352 329 334 334 338 343 342 334 299 316 264 284 297 299 281 273 254 232 220 212 209 204 210 200 190 172 167 191 173 178 171 175 170 157 173 189
19 3 3 356 9 37 22 347 330 319 336 346 342 335 339 3 325 321 238 226 240 247 258 271 257 246 227 215 210 213 208 214 194 156 199 184 183 189 186 144 153 177 192
6 349 351 348 358 46 37 331 314 295 329 340 339 342 344 346 353 332 314 303 285 234 246 243 252 260 260 235 217 221 208 189 179 184 205 221 180 196 191 162 165 186 197
342 312 328 328 337 42 33 323 311 305 332 346 343 350 344 354 1 330 308 306 299 270 194 210 266 279 311 267 253 229 202 201 193 172 191 230 185 186 197 188 170 183 197
315 308 334 324 328 354 49 327 318 307 340 341 353 7 34 3 350 333 315 311 305 301 256 183 190 202 207 199 208 234 240 232 212 179 172 209 196 198 199 192 181 182 199